This demonstration page uses our WeatherBlox Daily Observations layout. Learn more.

Left ArrowRight Arrow

Hourly Observations for July 21, 2019

Temp ( °F °C ) Dew Point ( °F °C ) Humidity (%) Winds ( mph kmh ) Pressure ( in mb ) Visibility ( mi km ) Precip ( " mm )
12:56 am 00:56 Cloudy 70 21.1 65 18.3 84 84 NE 13 20 29.91 1013 10 16 0.00 0.00
1:48 am 01:48 Cloudy 70 21 64 18 83 83 NE 16 26 29.87 1011 10 16 0.00 0.00
1:56 am 01:56 Cloudy 70 21.1 65 18.3 84 84 NE 17 28 29.89 1012 10 16 0.00 0.00
2:56 am 02:56 Cloudy 69 20.6 65 18.3 87 87 NE 12 19 29.89 1012 10 16 0.00 0.00
3:07 am 03:07 Cloudy with Nearby Thunderstorms 70 21 64 18 83 83 NE 12 19 29.86 1011 10 16 0.00 0.00
3:22 am 03:22 Cloudy 70 21 64 18 83 83 NE 14 22 29.85 1011 10 16 0.00 0.00
3:56 am 03:56 Cloudy 68 20 65 18.3 90 90 ENE 12 19 29.90 1013 10 16 0.00 0.00
4:16 am 04:16 Cloudy with Thunderstorms 68 20 66 19 94 94 NNW 22 35 29.95 1014 5 8 0.00 0.03
4:23 am 04:23 Cloudy with Thunderstorms 66 19 66 19 100 100 NNW 18 30 29.97 1015 3 5 0.03 0.76
4:29 am 04:29 Cloudy with Strong Thunderstorms 66 19 64 18 94 94 NNW 24 39 29.98 1015 4 6 0.07 1.78
4:39 am 04:39 Cloudy with Nearby Thunderstorms 64 18 64 18 100 100 NW 24 39 30.04 1017 3 4 0.38 9.65
4:52 am 04:52 Cloudy with Strong Thunderstorms 64 18 63 17 94 94 NNW 22 35 30.00 1016 5 8 0.56 14.22
4:53 am 04:53 Cloudy with Strong Thunderstorms 64 17.8 63 17.2 96 96 NNW 22 35 30.00 1016 5 8 0.58 14.73
5:12 am 05:12 Cloudy with Thunderstorms 64 18 63 17 94 94 NNW 16 26 29.93 1014 10 16 0.17 4.32
5:56 am 05:56 Mostly Cloudy with Thunderstorms 65 18.3 64 17.8 97 97 N 21 33 29.97 1015 10 16 0.18 4.57
6:27 am 06:27 Cloudy with Light Rain 64 18 64 18 100 100 NNE 14 22 29.95 1014 10 16 0.00 0.00
6:56 am 06:56 Sunny with Light Rain 65 18.3 64 17.8 97 97 NNE 17 28 29.93 1013 10 16 0.05 1.27
7:56 am 07:56 Mostly Sunny 67 19.4 64 17.8 91 91 ENE 17 28 29.93 1014 10 16 0.00 0.03
8:24 am 08:24 Mostly Cloudy 66 19 64 18 94 94 E 18 30 29.92 1013 10 16 0.00 0.00
8:42 am 08:42 Cloudy 66 19 64 18 94 94 E 13 20 29.93 1014 10 16 0.00 0.00
8:56 am 08:56 Cloudy 67 19.4 65 18.3 93 93 E 14 22 29.96 1015 10 16 0.00 0.00
9:56 am 09:56 Cloudy 67 19.4 65 18.3 93 93 S 13 20 30.06 1018 10 16 0.00 0.00
10:03 am 10:03 Cloudy with Light Rain 66 19 64 18 94 94 SSW 12 19 30.03 1017 10 16 0.00 0.00
10:26 am 10:26 Cloudy with Light Rain 68 20 64 18 88 88 SW 5 7 30.06 1018 10 16 0.00 0.03
10:41 am 10:41 Cloudy with Light Rain 70 21 66 19 88 88 WSW 8 13 30.05 1018 10 16 0.00 0.03
10:56 am 10:56 Cloudy with Light Rain 69 20.6 67 19.4 93 93 WNW 7 11 30.08 1019 10 16 0.01 0.25
11:38 am 11:38 Mostly Cloudy 70 21 66 19 88 88 Calm 30.04 1017 10 16 0.01 0.25
11:56 am 11:56 Mostly Cloudy with Light Rain 70 21.1 65 18.3 84 84 SE 5 7 30.07 1018 10 16 0.01 0.25
12:56 pm 12:56 Cloudy with Light Rain 70 21.1 66 18.9 87 87 ENE 5 7 30.07 1018 8 13 0.00 0.03
1:56 pm 13:56 Mostly Cloudy 71 21.7 64 17.8 79 79 NNE 5 7 30.08 1019 10 16 0.00 0.03
2:03 pm 14:03 Partly Cloudy 72 22 64 18 78 78 VRB 3 6 30.03 1017 10 16 0.00 0.00
2:36 pm 14:36 Mostly Cloudy 73 23 64 18 74 74 N 10 17 30.02 1017 10 16 0.00 0.00
2:56 pm 14:56 Partly Cloudy 74 23.3 66 18.9 76 76 N 10 17 30.06 1018 10 16 0.00 0.00
3:12 pm 15:12 Mostly Cloudy 75 24 66 19 74 74 N 12 19 30.01 1016 10 16 0.00 0.00
3:20 pm 15:20 Mostly Cloudy 73 23 66 19 78 78 NNE 9 15 30.01 1016 10 16 0.00 0.00
3:56 pm 15:56 Mostly Sunny 76 24.4 65 18.3 69 69 N 9 15 30.06 1018 10 16 0.00 0.00
4:28 pm 16:28 Mostly Cloudy 77 25 64 18 65 65 NNW 14 22 30.01 1016 10 16 0.00 0.00
4:56 pm 16:56 Mostly Cloudy 77 25 67 19.4 71 71 N 15 24 30.08 1019 10 16 0.01 0.25
5:56 pm 17:56 Partly Cloudy 76 24.4 67 19.4 74 74 NNE 16 26 30.09 1019 10 16 0.00 0.00
6:56 pm 18:56 Sunny 76 24.4 67 19.4 74 74 NNE 16 26 30.08 1019 10 16 0.00 0.00
7:56 pm 19:56 Mostly Cloudy 73 22.8 66 18.9 79 79 NNE 18 30 30.11 1020 10 16 0.00 0.00
8:06 pm 20:06 Mostly Cloudy 73 23 66 19 78 78 NE 17 28 30.05 1018 10 16 0.00 0.00
8:14 pm 20:14 Cloudy 72 22 66 19 83 83 NE 14 22 30.06 1018 10 16 0.00 0.00
8:30 pm 20:30 Cloudy 70 21 63 17 78 78 NE 16 26 30.09 1019 10 16 0.00 0.00
8:56 pm 20:56 Mostly Sunny 68 20 62 16.7 81 81 NE 12 19 30.14 1021 10 16 0.00 0.00
9:56 pm 21:56 Cloudy 67 19.4 63 17.2 87 87 NNE 9 15 30.17 1022 10 16 0.00 0.00
10:56 pm 22:56 Cloudy 67 19.4 58 14.4 73 73 NNE 10 17 30.19 1022 10 16 0.00 0.00
11:56 pm 23:56 Cloudy 65 18.3 56 13.3 73 73 NNE 10 17 30.19 1022 10 16 0.00 0.00

Powered by AerisWeather